Regional Weather Roundup
Issued by NWS Kansas City/Pleasant Hill, MO

Home | Current Version | Previous Version | Graphics & Text | Print | Product List | Glossary Off
Versions: 1 2 3 4 5 6 7 8 9 10 11 12 13 14 15 16 17 18 19 20 21 22 23 24 25 26 27 28 29 30 31 32 33 34 35 36 37 38 39 40 41 42 43 44 45 46 47 48 49 50

306
ASUS43 KEAX 310410
RWREAX

WEATHER ROUNDUP FOR EASTERN KANSAS AND NORTHWEST MISSOURI
NATIONAL WEATHER SERVICE KANSAS CITY/PLEASANT HILL MO
1100 PM CDT MON MAY 30 2016

KSZ040-057-103>105-MOZ028-029-037-043-310500-
...KANSAS CITY METROPOLITAN AREA...

CITY           SKY/WX    TMP DP  RH WIND       PRES   REMARKS
K.C. INTL      CLEAR     65  58  78 S7        29.97R
K.C. DOWNTOWN  CLEAR     69  59  70 S8        29.96R
LEES SUMMIT    CLEAR     66  61  84 S12       29.97F
OLATHE - IXD   CLEAR     64  62  93 SE7       29.97F
OLATHE - OJC   CLEAR     63  59  87 S8        29.97F
LAWRENCE       CLEAR     66  60  81 SE7       29.95F

$$

MOZ001>008-011>017-020>025-030>033-038>040-044>046-053-054-310500-
...NORTHERN AND CENTRAL MISSOURI...

CITY           SKY/WX    TMP DP  RH WIND       PRES   REMARKS
ST. JOSEPH     CLEAR     69  61  75 S8        29.95R
MOSBY          CLEAR     68  57  68 CALM      29.97R
WARRENSBURG    PTCLDY    63  61  94 S6        29.96F
WHITEMAN AFB   CLOUDY    65  65  99 S3        29.96S
CLINTON        CLOUDY    64  63  94 SW3       29.98F
SEDALIA        CLOUDY    66  61  84 SW7       29.98F
WARSAW         NOT AVBL
CHILLICOTHE      N/A     66  62  87 CALM      29.98R
KIRKSVILLE     PTCLDY    64  61  90 S5        29.99S

$$

MOZ041-047>049-056>058-063>065-088>090-097-310500-
...EASTERN AND SOUTHERN MISSOURI...

CITY           SKY/WX    TMP DP  RH WIND       PRES   REMARKS
ST. LOUIS INTL CLOUDY    74  61  63 W8        29.99
SPIRIT OF STL  CLOUDY    69  65  86 CALM      29.98F
COLUMBIA       CLOUDY    66  62  87 SE3       30.00S
JEFFERSON CITY CLOUDY    68  61  78 E3        29.99S
ROLLA          PTCLDY    64  62  93 SE6       29.99S
SPRINGFIELD    CLOUDY    66  61  84 SE6       29.99R
JOPLIN         CLOUDY    65  63  93 E5        29.98S
WEST PLAINS    MOCLDY    65  62  90 CALM      30.02S

$$

IAZ060-094-KSZ022-034>040-054-083-096-NEZ052-066-093-310500-
...KANSAS...SOUTHEAST NEBRASKA AND IOWA...

CITY           SKY/WX    TMP DP  RH WIND       PRES   REMARKS
TOPEKA         CLEAR     69  59  70 S6        29.96R
MANHATTAN      CLEAR     70  62  76 S6        29.95R
EMPORIA        CLEAR     65  60  84 SE8       29.97R
CHANUTE        CLEAR     65  62  90 E5        29.96F
WICHITA        PTCLDY    68  62  81 SE13      29.94R
OMAHA          CLOUDY    69  61  75 S15G21    29.91R
LINCOLN        CLOUDY    72  63  73 SE12      29.90R
FALLS CITY     CLEAR     69  63  81 SE7       29.94R
LAMONI         PTCLDY    65  61  87 S8        29.95F
DES MOINES     CLOUDY    72  55  55 S6        29.92R

$$





USA.gov is the U.S. government's official web portal to all federal, state and local government web resources and services.